C/2017 T2 ( PanSTARRS )

Japanese version
Home page
Updated on August 7, 2019

---------------------------------------------------------------------

* Profile

Discovery Date October 2, 2017
Magnitude 19.9 mag
Discoverer Pan-STARRS 1 telescope (Haleakala)

* Pictures

* Orbital Elements

Epoch 2020 Apr. 21.0 TT = JDT 2458960.5
T 2020 May 4.96167 TT                                   MPCW
q   1.6151476            (2000.0)            P               Q
z  +0.0002294      Peri.   92.99396     -0.50994653     -0.40635859
 +/-0.0000015      Node    64.37757     -0.16277629     -0.81987710
e   0.9996295      Incl.   57.23116     +0.84466468     -0.40332894
From 1000 observations 2017 Sept. 15-2019 Apr. 7, mean residual 0".4.

* Finding Charts

* Magnitudes Graph

        m1 = 3.5 + 5 log d + 11.0 log r

---------------------------------------------------------------------

The orbital elements are published on M.P.E.C. 2019-J142.
The charts are made with StellaNavigator Ver.10 (AstroArts).
The magnitudes graphs are made with Comet for Windows.

---------------------------------------------------------------------

Copyright(C) Seiichi Yoshida (comet@aerith.net). All rights reserved.